Regional Weather Roundup
Issued by NWS Boston, MA

Current Version | Previous Version | Text Only | Print | Product List | Glossary Off
Versions: 1 2 3 4 5 6 7 8 9 10 11 12 13 14 15 16 17 18 19 20 21 22 23 24 25 26 27 28 29 30 31 32 33 34 35 36 37 38 39 40 41 42 43 44 45 46 47 48 49 50
000 ASUS41 KBOX 302010 RWRBOX REGIONAL WEATHER ROUNDUP NATIONAL WEATHER SERVICE TAUNTON MA 400 PM EDT MON MAR 30 2015 NOTE: "FAIR" INDICATES FEW OR NO CLOUDS BELOW 12,000 FEET WITH NO SIGNIFICANT WEATHER AND/OR OBSTRUCTIONS TO VISIBILITY. THE FOLLOWING OBSERVATION LOCATIONS DO NOT REPORT PRESENT WEATHER...PROVINCETOWN... SMITHFIELD...BLOCK ISLAND...KEENE...AND OXFORD. MAZALL-302100- EASTERN MASSACHUSETTS CITY SKY/WX TMP DP RH WIND PRES REMARKS BOSTON PTSUNNY 44 33 65 SW16 29.72 BEVERLY PTSUNNY 41 31 67 SW13 29.70F LAWRENCE PTSUNNY 41 30 65 SW8 29.71S BEDFORD PTSUNNY 42 30 62 SW12 29.70F BLUE HILL N/A 40 31 70 SW18G26 29.69F WCI 31 NORWOOD PTSUNNY 44 31 60 SW16G22 29.72F MARSHFIELD FAIR 43 34 70 SW8G21 29.75F PLYMOUTH CLOUDY 39 33 79 SW15G23 29.74F WCI 31 TAUNTON CLOUDY 43 33 68 SW13G20 29.74F NEW BEDFORD CLOUDY 40 35 83 SW12 29.74F $$ MAZALL-302100- CAPE COD AND THE ISLANDS CITY SKY/WX TMP DP RH WIND PRES REMARKS FALMOUTH PTSUNNY 39 36 87 SW21G30 29.75F WCI 29 HYANNIS CLOUDY 39 35 86 SW17 29.74F WCI 30 CHATHAM LGT RAIN 38 35 89 SW9G18 29.77F WCI 31 PROVINCETOWN CLOUDY 39 34 81 SW13 29.75F WCI 32 NANTUCKET LGT RAIN 39 34 82 SW12 29.78F WCI 32 MARTHAS VNYRD LGT RAIN 39 31 72 SW13G25 29.76F WCI 31 $$ MAZALL-302100- CENTRAL AND WESTERN MASSACHUSETTS CITY SKY/WX TMP DP RH WIND PRES REMARKS WORCESTER CLOUDY 39 28 64 SW12 29.69S WCI 32 FITCHBURG CLOUDY 42 28 57 SW8 29.71S ORANGE CLOUDY 40 28 62 SW7 29.70S SPRINGFIELD CLOUDY 45 29 53 W9G20 29.71S WESTFIELD NOT AVBL NORTH ADAMS CLOUDY 39 29 67 W8 29.70F PITTSFIELD CLOUDY 38 27 64 W18G26 29.68S WCI 28 $$ RIZALL-302100- RHODE ISLAND CITY SKY/WX TMP DP RH WIND PRES REMARKS PROVIDENCE PTSUNNY 45 33 63 SW9 29.75F NEWPORT CLOUDY 39 34 82 VRB7G21 29.75F BLOCK ISLAND CLOUDY 39 34 81 SW16G22 29.76F WCI 30 SMITHFIELD CLOUDY 43 28 56 SW5 29.72F WESTERLY PTSUNNY 41 34 76 SW13G23 29.77F $$ CTZALL-302100- CONNECTICUT CITY SKY/WX TMP DP RH WIND PRES REMARKS BRADLEY INTL CLOUDY 48 28 46 W15 29.72S HARTFORD CLOUDY 47 30 51 SW12 29.74S BRIDGEPORT CLOUDY 47 34 60 SW12 29.74F DANBURY CLOUDY 48 28 46 W13G20 29.75S GROTON FAIR 44 35 70 SW12 29.76F NEW HAVEN CLOUDY 44 32 62 SW9 29.75F CHESTER CLOUDY 45 32 61 SW7 29.74F MERIDEN CLOUDY 47 32 56 S5 29.74S WILLIMANTIC PTSUNNY 47 30 51 W12 29.73F OXFORD CLOUDY 46 27 46 NW12G23 29.75S $$ MEZ002-015-021-024-NHZ003-005-008-011-012-014-VTZ005-008-302100- NORTHERN NEW ENGLAND CITY SKY/WX TMP DP RH WIND PRES REMARKS PORTLAND ME CLOUDY 38 33 82 S9 29.69F WCI 31 BANGOR ME LGT SNOW 34 32 92 S14 29.67F FOG WCI 25 CONCORD NH CLOUDY 39 29 67 SW6 29.68S MANCHESTER NH CLOUDY 41 32 70 S8 29.67F NASHUA NH CLOUDY 42 30 62 VRB3 29.70F PORTSMOUTH NH CLOUDY 41 31 67 SW10 29.68F JAFFREY NH CLOUDY 37 28 70 SW8 29.66F WCI 31 KEENE NH CLOUDY 39 28 65 SW5 29.69R BURLINGTON VT CLOUDY 39 29 67 SW9G20 29.60R MT. WASHINGTON SNOW 14 14 100 W51 N/A VSB 0 WCI -11 $$ NYZ052-076-302100- EASTERN NEW YORK CITY SKY/WX TMP DP RH WIND PRES REMARKS ALBANY CLOUDY 44 26 49 W18G25 29.73R NEW YORK CITY CLOUDY 52 27 38 NW22 29.76S $$ ANZALL-302100- MARINE OBSERVATIONS STATION/POSITION TIME TEMP WIND PRES VSBY WAVE AIR SEA DIR/SP/G HT/PER (UTC) (F) (DEG/KT/KT) (MB) (MI) (FT/S) BOSTON BUOY 1950 38 36 220/ 10/ 12 1006.8F 3/10 BUZZARDS BAY 2000 230/ 20/ 22 1008.0F NANTUCKET SOUND 1950 38 37 210/ 12/ 14 1008.0F 2/ 3 MASS BAY-STELLWA 1904 37 37 220/ 12/ 12 N/A 1 7/8 4/11 ISLE OF SHOALS 2000 38 220/ 15/ 16 1005.1F S OF BLOCK IS 1908 36 N/A 5/ 6 $$ ......................KEY......................... SKY/WX - SKY CONDITION/PRESENT WEATHER TMP - TEMPERATURE IN FAHRENHEIT DWPT - DEWPOINT IN FAHRENHEIT RH - RELATIVE HUMIDITY IN PERCENT WIND - DIRECTION AND SPEED IN MPH PRES - MEAN SEA LEVEL PRESSURE IN INCHES OF HG WCI - WIND CHILL INDEX VSB - VISIBILITY IN MILES HX - HEAT INDEX TC - TEMPERATURE IN CELSIUS VRB - VARIABLE WIND DIRECTION N/A - NOT AVAILABLE

USA.gov is the U.S. government's official web portal to all federal, state and local government web resources and services.